Probability
0 0 0 0 0 0 0 0 0 0 1 2 3 3 3 2 1 2 3 4 4 5 7 10 15 19 22 23 22 17 13 10 9 8 7 4 2 3 3 3 2 2 3 3
0 0 0 0 0 0 0 0 0 0 0 1 3 4 4 3 2 3 3 4 5 6 8 12 16 20 23 25 24 20 15 10 8 8 9 7 4 4 4 4 5 6 5 5
0 0 0 0 0 0 0 0 0 0 0 1 3 5 5 4 3 3 4 5 7 8 9 13 17 20 23 26 26 23 17 11 8 8 10 9 6 6 7 8 9 10 10 9
0 0 0 0 0 0 0 0 1 1 1 1 3 5 5 4 3 3 4 5 8 9 9 13 18 20 23 26 27 25 20 14 10 9 10 9 8 8 11 12 13 13 13 13
0 0 0 1 0 0 1 1 2 2 2 2 3 5 4 4 4 4 4 5 8 10 13 15 17 21 25 28 29 27 23 18 15 14 12 10 9 10 12 14 14 14 13 13
0 0 0 1 1 1 2 3 2 3 4 3 3 3 3 4 4 5 5 6 8 13 17 17 17 21 27 30 30 28 24 21 21 20 17 13 12 12 12 13 13 14 13 12
0 0 0 1 2 3 3 3 3 5 6 5 4 3 3 3 5 6 8 9 10 14 18 18 17 21 26 28 27 25 22 22 23 23 21 18 16 13 12 12 12 12 11 11
0 0 0 1 3 3 2 2 4 6 6 7 7 6 5 6 7 9 11 12 14 17 20 19 18 22 26 26 26 24 23 22 23 22 21 20 17 14 13 13 13 11 9 9
1 1 1 1 1 2 2 3 5 7 7 8 8 8 9 10 11 12 13 13 16 21 23 21 19 22 25 28 29 29 27 24 22 20 18 17 16 15 16 17 16 13 10 8
2 2 2 1 1 1 2 3 5 6 7 8 8 9 11 12 12 12 12 13 17 21 24 22 20 21 24 28 32 32 29 24 20 18 16 16 16 16 17 18 18 16 13 10
4 3 3 3 3 3 3 4 5 6 7 7 6 8 10 12 11 10 11 13 16 19 22 22 21 22 23 27 29 30 28 22 18 17 16 16 15 14 13 14 14 14 14 13
5 4 4 5 6 5 5 5 6 5 5 5 5 5 8 9 10 10 11 13 15 17 19 20 21 21 23 25 27 27 25 20 17 17 17 15 13 9 7 7 7 8 9 10
5 6 6 6 6 6 5 5 5 5 5 5 3 3 5 7 8 9 11 13 15 16 17 17 17 19 22 24 25 24 21 19 17 16 16 15 11 7 4 4 4 4 4 4
6 7 7 7 6 6 6 5 4 5 6 6 5 4 4 6 7 8 10 13 14 15 16 14 14 17 19 21 22 20 18 17 16 15 14 13 11 8 6 6 6 5 2 1
4 5 5 5 6 6 6 5 4 5 7 8 7 5 5 6 6 5 7 11 13 14 14 14 14 15 15 17 17 16 15 15 14 13 11 10 8 7 7 7 7 6 3 1
2 2 2 3 5 6 5 5 4 4 6 7 6 5 5 6 5 4 6 9 11 12 12 13 13 13 12 12 13 14 13 13 12 10 9 7 6 6 7 7 8 8 5 3
1 1 0 1 3 4 4 4 4 4 4 5 5 5 5 6 6 5 6 8 10 11 11 13 12 11 10 10 10 11 13 13 10 8 6 5 5 6 7 8 8 7 5 3
1 1 1 2 3 3 3 3 3 3 4 5 6 6 6 6 7 7 7 9 10 11 11 12 11 11 10 9 8 10 11 11 9 7 6 4 5 7 9 8 6 4 2 2
2 2 2 2 2 2 2 3 3 3 4 5 6 7 8 8 9 9 9 10 11 12 11 10 10 11 11 9 8 9 10 10 9 7 6 4 5 7 8 6 3 1 0 1
3 2 1 1 0 1 1 1 2 2 3 4 6 9 10 10 9 9 10 11 12 11 10 9 9 10 10 9 8 9 10 10 9 8 6 5 5 5 4 2 1 0 0 0
2 2 1 0 1 1 0 0 1 1 1 3 5 8 9 9 8 8 9 9 10 9 9 8 7 7 6 5 6 7 9 9 9 8 7 5 4 3 1 0 0 0 0 0
1 2 1 1 1 2 1 0 0 0 0 1 3 5 6 7 7 6 5 6 6 6 6 6 5 4 3 3 4 5 7 8 8 7 6 4 3 2 1 0 0 0 0 0
1 2 2 1 1 2 2 1 0 1 1 1 2 3 4 4 4 4 3 3 4 4 4 3 3 3 3 3 3 4 4 4 4 4 4 3 3 2 1 0 0 0 0 0
1 2 2 1 0 1 1 1 0 1 2 2 2 2 3 3 3 3 3 3 3 3 3 1 1 3 3 3 3 3 3 2 1 2 2 3 3 2 1 0 0 0 0 0
0 1 1 0 0 0 0 0 0 1 2 3 3 3 3 3 3 3 3 3 2 3 3 1 1 3 3 3 3 3 2 1 0 0 1 1 2 1 0 0 0 0 0 0
0 0 0 0 0 0 0 0 0 0 1 2 2 3 3 3 3 4 4 3 2 3 3 3 2 2 2 2 2 1 1 0 0 0 0 0 1 1 0 0 0 0 0 0
0 0 0 0 0 0 0 0 0 0 0 1 1 2 3 3 4 5 4 2 2 3 3 3 3 2 1 1 1 0 0 0 0 0 0 0 1 1 1 0 0 0 0 0
Wind_Speed
3 3 3 4 5 6 6 8 8 8 7 9 7 6 4 3 2 2 4 5 6 7 6 6 6 6 6 7 7 7 7 7 7 6 5 5 5 4 4 4 4 3 3 2
1 1 2 3 5 7 6 6 6 5 7 7 4 2 2 3 3 3 4 6 6 6 6 7 7 7 7 7 7 8 8 7 6 6 6 5 5 5 4 4 3 3 3 3
2 2 1 4 6 7 5 5 7 8 8 3 2 4 5 5 5 6 6 5 6 6 7 7 8 8 8 8 7 8 8 7 7 7 6 6 6 5 5 4 4 4 3 3
2 2 5 8 4 4 4 4 5 5 5 5 5 5 4 4 5 5 5 5 5 5 6 5 5 6 6 6 7 8 8 7 7 7 7 6 6 5 5 4 4 3 3 4
4 3 5 6 2 3 3 4 4 4 3 2 1 2 2 3 4 5 5 5 5 5 6 5 6 6 7 7 7 7 8 8 8 8 8 7 6 6 5 4 4 4 3 4
4 4 6 7 3 1 3 4 3 3 4 2 3 0 5 3 3 4 3 3 3 3 4 5 5 6 7 7 7 8 8 8 7 7 8 8 7 6 4 4 4 4 3 3
4 4 7 6 4 1 4 8 3 4 5 4 4 6 5 3 3 3 2 2 2 2 4 5 6 7 7 7 8 7 6 6 6 7 7 7 6 5 5 4 4 4 4 3
4 4 8 4 0 4 6 4 3 3 4 4 3 2 2 2 2 1 1 1 1 2 3 3 5 7 7 7 6 5 6 6 6 6 6 6 6 5 5 6 5 4 4 3
7 7 5 3 3 4 3 3 3 3 3 3 2 2 2 1 1 1 1 1 1 2 2 3 4 6 7 5 5 5 6 6 6 6 5 6 6 6 5 5 5 4 4 4
3 5 4 4 3 3 3 3 2 2 2 3 3 3 2 1 1 0 1 1 0 1 2 2 3 4 4 4 5 5 6 6 5 5 5 5 5 5 6 6 6 6 5 5
4 5 4 5 4 4 3 1 0 0 1 2 3 2 2 1 1 1 1 1 1 2 3 3 3 3 4 4 5 5 5 5 5 5 5 4 4 4 5 5 6 7 6 5
6 6 4 6 5 3 2 2 1 1 1 1 2 2 1 1 2 2 1 1 1 1 2 2 2 3 3 5 6 7 5 5 4 4 4 4 4 2 0 2 4 6 6 6
6 5 5 7 6 4 3 3 1 2 2 2 2 2 2 2 2 1 1 1 2 3 3 3 3 3 3 4 6 6 6 5 4 5 5 5 5 4 3 1 1 4 6 7
5 3 4 5 5 4 4 3 2 1 1 2 2 2 2 1 0 1 2 2 2 2 2 2 3 3 3 4 5 5 5 6 5 4 5 5 5 5 5 4 3 2 2 5
4 4 5 4 4 4 3 2 1 2 2 1 1 2 2 2 2 3 3 2 2 1 1 2 3 3 3 4 5 5 4 4 4 4 4 4 4 4 4 5 4 3 2 2
3 2 3 3 4 4 2 2 3 3 3 2 2 2 3 3 3 3 2 2 2 3 3 3 4 4 4 5 5 4 4 6 5 4 4 4 4 4 4 4 4 4 4 4
3 3 3 4 5 4 4 4 4 4 4 3 3 2 1 1 1 2 3 3 3 4 4 4 4 3 3 5 5 4 4 5 6 5 4 4 4 4 4 4 4 4 4 5
5 6 5 5 4 5 4 4 3 3 3 3 2 2 2 2 3 4 3 2 1 1 3 4 4 3 4 4 4 3 4 4 4 4 4 4 4 4 4 5 5 5 3 4
3 4 4 4 4 3 3 3 3 2 2 2 2 2 2 3 3 2 2 2 2 3 3 3 3 4 4 4 4 3 3 4 3 3 4 4 4 4 4 4 4 4 4 4
1 2 1 1 1 2 2 2 2 2 2 1 1 1 1 2 2 1 1 1 3 3 3 3 2 3 3 4 4 3 3 4 3 3 3 4 4 4 4 4 4 4 4 5
1 1 1 0 1 0 1 2 2 2 2 1 2 3 3 2 1 1 1 1 3 2 2 3 3 3 3 3 3 3 3 4 4 4 4 4 4 4 4 4 4 4 4 4
1 1 1 1 1 2 2 1 1 1 1 1 1 1 1 1 1 1 2 2 3 2 2 2 3 3 3 3 3 3 3 3 3 3 3 3 3 3 4 4 4 4 4 4
1 1 1 1 1 2 3 2 1 0 1 1 1 1 1 2 1 1 2 2 2 2 1 1 2 2 2 2 2 2 2 2 2 2 3 3 3 3 3 4 4 4 4 4
2 1 1 1 1 2 3 3 3 1 1 1 1 1 2 1 1 2 2 2 2 1 0 1 1 1 2 1 1 1 1 2 2 2 2 2 2 2 3 3 3 3 4 5
1 1 1 1 1 1 2 2 3 3 2 2 2 2 1 1 1 1 1 1 1 1 0 0 1 1 1 1 1 1 1 1 2 2 2 2 2 2 2 2 3 3 3 4
1 1 1 1 1 1 1 1 1 2 2 2 2 2 1 1 0 0 1 1 1 1 0 1 1 1 1 1 1 1 1 1 1 1 2 2 2 2 3 3 3 3 3 3
1 1 1 1 1 1 1 1 1 2 1 1 1 2 1 1 1 1 1 1 1 1 1 1 1 1 1 1 1 0 0 1 1 1 1 1 2 2 2 3 2 2 2 3
Wind_Direction
217 218 194 200 199 184 182 186 191 223 223 245 245 234 231 222 194 168 176 179 184 189 192 186 179 180 182 180 175 172 170 178 184 177 170 164 162 165 162 164 168 164 158 158
313 261 216 226 219 203 205 197 210 223 247 247 248 223 212 207 191 194 200 201 199 195 189 189 187 184 179 180 176 171 173 182 178 168 165 168 168 164 160 164 163 156 162 165
234 292 56 252 229 206 205 203 183 208 230 228 233 220 213 208 198 205 208 206 201 200 197 197 193 184 182 182 171 170 176 178 175 171 169 174 173 163 169 173 165 165 171 170
132 97 212 238 241 205 199 223 216 220 225 209 223 237 219 201 201 215 215 207 206 201 198 195 184 176 172 165 167 172 177 180 177 172 174 171 166 170 175 172 173 179 182 179
130 175 267 284 240 182 180 251 237 212 217 228 284 10 302 232 215 218 214 212 209 204 190 178 176 168 157 163 166 171 180 185 181 174 171 171 175 179 178 170 173 177 174 174
139 167 223 243 259 213 129 267 250 189 191 189 107 169 260 257 242 242 224 204 196 194 169 168 175 161 160 174 177 186 188 185 177 172 173 176 180 176 172 171 177 170 171 181
169 210 254 260 286 139 176 241 238 190 193 182 192 217 248 271 251 230 213 202 174 169 175 182 172 160 170 179 194 195 180 171 167 168 170 167 165 163 163 166 167 172 176 184
161 195 249 285 63 178 224 254 239 215 201 199 220 249 273 258 249 238 209 176 166 171 182 176 168 166 178 196 194 168 161 165 169 166 168 164 159 163 167 163 170 180 182 188
190 212 244 259 235 254 232 247 250 223 221 192 207 244 255 251 244 249 223 214 189 169 171 174 174 174 186 194 166 157 159 167 167 167 168 166 171 175 175 172 175 186 189 199
248 262 272 290 301 302 274 250 256 224 212 197 206 219 214 207 221 252 265 234 227 153 172 197 186 181 185 171 162 158 164 167 164 166 168 169 174 186 186 184 185 185 193 202
261 278 307 301 292 295 308 315 46 80 186 197 173 204 189 199 229 231 244 246 207 193 192 206 186 181 175 161 153 154 158 166 165 168 172 172 178 188 194 199 193 189 196 193
230 232 226 266 282 296 307 299 240 151 312 260 178 205 212 218 242 239 233 205 178 180 187 205 181 177 176 166 158 158 164 170 172 174 179 178 173 163 155 206 202 200 196 190
237 244 242 267 282 284 271 266 259 210 209 242 250 202 209 240 247 244 258 244 221 209 200 194 182 185 182 170 164 166 175 178 177 180 180 181 181 181 184 159 160 191 198 194
236 227 259 262 265 278 272 265 276 291 260 237 233 214 192 214 272 295 280 269 265 235 200 184 179 206 199 172 172 177 181 184 181 182 185 189 189 190 186 185 194 206 197 192
244 217 225 253 271 277 267 255 258 277 281 281 233 205 195 195 217 249 263 271 276 254 229 204 199 227 213 183 183 185 186 189 184 183 184 189 187 187 188 191 193 193 180 181
255 255 248 253 263 267 262 242 237 254 253 244 236 222 214 206 214 248 261 236 200 213 226 222 224 223 205 191 190 190 194 199 191 182 182 184 183 186 191 196 195 198 204 197
222 251 249 252 250 248 242 234 236 241 239 233 233 222 196 183 217 251 260 243 214 217 221 223 233 228 207 200 194 195 195 197 192 187 191 191 191 194 197 197 200 207 214 204
222 225 224 223 236 244 247 240 234 233 235 235 221 194 195 205 224 237 242 228 192 248 249 231 217 210 210 204 197 194 192 194 192 194 193 191 194 197 199 200 202 207 213 200
225 229 234 231 231 226 234 242 240 236 238 225 198 205 218 223 227 238 231 191 183 226 249 237 217 203 207 206 192 186 189 193 192 193 192 191 196 199 200 202 206 208 206 200
276 243 227 243 238 201 208 234 233 239 244 212 194 210 235 248 241 247 241 231 227 222 219 219 212 213 216 208 190 182 186 190 191 193 193 195 200 204 204 204 206 208 209 206
333 2 78 13 314 277 212 234 234 240 245 217 203 220 235 257 255 218 177 286 285 246 215 218 216 220 212 196 185 184 187 191 193 197 198 201 202 202 203 205 207 208 211 213
0 46 27 5 14 342 306 274 241 207 204 215 224 215 211 256 276 282 256 245 262 243 197 198 204 207 205 192 184 184 186 190 194 195 199 202 203 207 208 208 211 215 216 216
350 7 15 17 348 317 329 338 344 80 169 192 193 188 196 227 228 222 287 293 283 264 221 205 207 199 185 167 163 169 175 185 195 201 205 207 210 213 215 217 216 218 220 223
346 349 348 356 36 23 353 338 349 352 346 311 264 218 193 218 278 250 235 283 299 290 233 209 189 168 147 140 146 158 172 184 194 203 207 207 215 221 224 225 228 225 221 223
310 337 6 22 20 333 307 325 353 358 357 355 338 319 282 207 216 281 322 320 316 328 2 44 106 127 131 140 155 165 176 192 201 206 208 211 223 230 234 231 232 232 226 227
289 294 289 273 260 267 286 314 333 329 335 339 332 330 325 322 90 10 350 347 350 8 30 63 83 106 130 133 136 160 183 200 209 213 217 224 231 233 233 231 231 230 225 225
340 339 350 345 328 300 283 278 282 293 291 284 298 310 314 334 43 43 6 347 353 37 56 63 76 86 91 102 112 125 190 221 229 234 236 238 242 243 236 229 226 224 223 222